DW6610 Weather Reports


time (UTC)temp
C
wind
direction
speed
KPH
gust
KPH
rain 1hr
cm
rain 24hr
cm
rain mn
cm
humidity
%
barometer
mb
20260509101554 13 82 0.0 4.8 0.00 0.00 0.00 96 1010.4
20260509101055 13 0 0.0 4.8 0.00 0.00 0.00 97 1010.4
20260509100552 12 45 1.6 4.8 0.00 0.00 0.00 97 1010.5
20260509100054 12 84 1.6 4.8 0.00 0.00 0.00 97 1010.6
20260509095555 12 37 0.0 3.2 0.00 0.00 0.00 97 1010.6
20260509095052 12 91 0.0 3.2 0.00 0.00 0.00 97 1010.7
20260509094610 12 0 0.0 3.2 0.00 0.00 0.00 96 1010.9
20260509094051 12 72 0.0 1.6 0.00 0.00 0.00 96 1010.8
20260509093551 12 83 0.0 1.6 0.00 0.00 0.00 96 1010.9
20260509093053 12 0 0.0 0.0 0.00 0.00 0.00 96 1010.8
20260509092555 12 0 0.0 0.0 0.00 0.00 0.00 96 1010.9
20260509092051 12 0 0.0 0.0 0.00 0.00 0.00 95 1010.6
20260509091556 12 0 0.0 0.0 0.00 0.00 0.00 95 1010.6
20260509091054 12 0 0.0 0.0 0.00 0.00 0.00 95 1010.5
20260509090552 12 0 0.0 0.0 0.00 0.00 0.00 94 1010.4
20260509085552 12 0 0.0 0.0 0.00 0.00 0.00 94 1010.5
20260509085050 13 0 0.0 0.0 0.00 0.00 0.00 94 1010.5
20260509084559 13 0 0.0 0.0 0.00 0.00 0.00 94 1010.7
20260509084050 13 0 0.0 0.0 0.00 0.00 0.00 93 1010.6
20260509083550 13 0 0.0 0.0 0.00 0.00 0.00 93 1010.6
20260509083054 13 0 0.0 0.0 0.00 0.00 0.00 92 1010.6
20260509082550 13 0 0.0 1.6 0.00 0.00 0.00 92 1010.5
20260509082051 13 0 0.0 1.6 0.00 0.00 0.00 92 1010.5
20260509081555 13 0 0.0 1.6 0.00 0.00 0.00 91 1010.5
20260509081051 13 0 0.0 3.2 0.00 0.00 0.00 91 1010.3
20260509080552 13 0 0.0 4.8 0.00 0.00 0.00 91 1010.3
20260509080052 14 0 0.0 4.8 0.00 0.00 0.00 91 1010.3
20260509075550 13 70 1.6 4.8 0.00 0.00 0.00 91 1010.1
20260509075050 14 44 1.6 4.8 0.00 0.00 0.00 91 1010.3
20260509074552 14 49 0.0 6.4 0.00 0.00 0.00 91 1010.3
20260509074052 14 56 1.6 6.4 0.00 0.00 0.00 90 1010.3
20260509073552 14 50 0.0 4.8 0.00 0.00 0.00 90 1010.3
20260509073050 14 15 0.0 3.2 0.00 0.00 0.00 90 1010.2
20260509072548 14 49 0.0 3.2 0.00 0.00 0.00 90 1010.0
20260509072051 14 0 0.0 4.8 0.00 0.00 0.00 90 1009.9
20260509071616 14 75 0.0 4.8 0.00 0.00 0.00 90 1010.0
20260509071052 14 0 0.0 4.8 0.00 0.00 0.00 90 1010.3
20260509070552 14 0 0.0 1.6 0.00 0.00 0.00 90 1010.3
20260509070106 14 0 0.0 1.6 0.00 0.00 0.00 89 1010.4
20260509065551 14 0 0.0 1.6 0.00 0.00 0.00 89 1010.4
20260509065051 14 0 0.0 1.6 0.00 0.00 0.00 89 1010.6
20260509064556 14 0 0.0 1.6 0.00 0.00 0.00 88 1010.7
20260509064050 15 0 0.0 1.6 0.00 0.00 0.00 88 1010.7
20260509063551 15 0 0.0 4.8 0.00 0.00 0.00 88 1010.3
20260509063055 15 34 0.0 4.8 0.00 0.00 0.00 88 1010.5
20260509062551 15 41 1.6 4.8 0.00 0.00 0.00 87 1010.7
20260509062051 15 51 1.6 8.0 0.00 0.00 0.00 87 1010.9
20260509061555 15 325 1.6 8.0 0.00 0.00 0.00 87 1011.0
20260509061048 15 32 1.6 6.4 0.00 0.00 0.00 87 1010.6
20260509060549 15 17 1.6 6.4 0.00 0.00 0.00 87 1011.1
20260509055550 15 66 1.6 8.0 0.00 0.00 0.00 87 1010.9
20260509055053 15 27 3.2 8.0 0.00 0.00 0.00 86 1010.9
20260509054613 15 50 1.6 8.0 0.00 0.00 0.00 86 1011.1
20260509054050 15 93 1.6 11.3 0.00 0.00 0.00 86 1011.2
20260509053549 15 71 3.2 11.3 0.00 0.00 0.00 85 1011.1
20260509053144 15 30 3.2 6.4 0.00 0.00 0.00 85 1011.3
20260509052552 15 11 0.0 6.4 0.00 0.00 0.00 85 1011.7
20260509052052 15 321 3.2 6.4 0.00 0.00 0.00 85 1011.5
20260509051554 15 72 1.6 4.8 0.00 0.00 0.00 85 1011.8
20260509051049 15 89 1.6 6.4 0.00 0.00 0.00 85 1011.7
20260509050550 15 65 1.6 6.4 0.00 0.00 0.00 84 1011.7
20260509050059 15 38 1.6 8.0 0.00 0.00 0.00 84 1011.6
20260509045550 15 71 1.6 8.0 0.00 0.00 0.00 84 1011.8
20260509045050 15 77 1.6 6.4 0.00 0.00 0.00 84 1011.9
20260509044557 15 1 1.6 8.0 0.00 0.00 0.00 84 1011.9
20260509044050 15 72 3.2 8.0 0.00 0.00 0.00 84 1012.0
20260509043549 15 48 1.6 4.8 0.00 0.00 0.00 84 1012.0
20260509043057 15 44 0.0 4.8 0.00 0.00 0.00 83 1012.1
20260509042549 15 71 0.0 6.4 0.00 0.00 0.00 83 1012.1
20260509042050 15 29 0.0 8.0 0.00 0.00 0.00 82 1012.2
20260509041558 15 47 0.0 8.0 0.00 0.00 0.00 82 1012.1
20260509041050 16 76 1.6 8.0 0.00 0.00 0.00 82 1012.1
20260509040550 16 55 1.6 8.0 0.00 0.00 0.00 81 1012.0
20260509040109 16 43 1.6 4.8 0.00 0.00 0.00 81 1012.0
20260509035550 16 41 0.0 3.2 0.00 0.00 0.00 81 1011.8
20260509035054 16 86 0.0 3.2 0.00 0.00 0.00 80 1011.9
20260509034614 16 67 0.0 3.2 0.00 0.00 0.00 80 1012.0
20260509034050 16 0 0.0 4.8 0.00 0.00 0.00 79 1011.8
20260509033550 16 82 0.0 4.8 0.00 0.00 0.00 79 1011.6
20260509033052 16 0 1.6 4.8 0.00 0.00 0.00 78 1011.5
20260509032550 16 44 0.0 3.2 0.00 0.00 0.00 78 1011.5
20260509032050 16 68 0.0 4.8 0.00 0.00 0.00 77 1011.6
20260509031554 16 0 0.0 8.0 0.00 0.00 0.00 77 1011.6
20260509031050 17 53 1.6 8.0 0.00 0.00 0.00 76 1011.3
20260509030552 17 41 0.0 6.4 0.00 0.00 0.00 76 1011.5
20260509025550 17 72 1.6 4.8 0.00 0.00 0.00 75 1011.6
20260509025051 17 313 1.6 4.8 0.00 0.00 0.00 75 1011.7
20260509024554 17 65 0.0 3.2 0.00 0.00 0.00 74 1011.6
20260509024051 17 49 0.0 4.8 0.00 0.00 0.00 74 1011.7
20260509023554 17 53 1.6 4.8 0.00 0.00 0.00 73 1011.8
20260509023055 17 55 0.0 6.4 0.00 0.00 0.00 72 1011.8
20260509022551 17 70 1.6 6.4 0.00 0.00 0.00 72 1011.7
20260509022048 17 53 0.0 6.4 0.00 0.00 0.00 71 1011.8
20260509021553 17 53 1.6 9.7 0.00 0.00 0.00 71 1011.8
20260509021051 17 28 1.6 9.7 0.00 0.00 0.00 70 1011.5
20260509020551 17 55 1.6 4.8 0.00 0.00 0.00 70 1011.5
20260509020057 17 53 1.6 4.8 0.00 0.00 0.00 69 1011.3
20260509015552 18 46 1.6 4.8 0.00 0.00 0.00 69 1011.3
20260509015051 18 63 0.0 4.8 0.00 0.00 0.00 69 1011.2
20260509014553 18 60 1.6 4.8 0.00 0.00 0.00 68 1011.2
20260509014051 18 78 0.0 4.8 0.00 0.00 0.00 68 1011.1
20260509013551 18 58 0.0 4.8 0.00 0.00 0.00 67 1011.3
20260509013109 18 51 1.6 4.8 0.00 0.00 0.00 67 1011.2
20260509012548 18 63 1.6 4.8 0.00 0.00 0.00 66 1011.4
20260509012051 18 60 1.6 4.8 0.00 0.00 0.00 65 1011.3
20260509011603 19 82 0.0 4.8 0.00 0.00 0.00 64 1011.4
20260509011050 19 75 0.0 4.8 0.00 0.00 0.00 64 1011.4
20260509010552 19 51 1.6 4.8 0.00 0.00 0.00 63 1011.3
20260509010051 20 63 0.0 3.2 0.00 0.00 0.00 62 1011.3
20260509005553 20 74 0.0 3.2 0.00 0.00 0.00 61 1011.3
20260509005051 20 0 0.0 3.2 0.00 0.00 0.00 60 1011.2
20260509004602 20 0 0.0 3.2 0.00 0.00 0.00 59 1011.2
20260509004052 21 0 0.0 3.2 0.00 0.00 0.00 58 1011.2
20260509003555 21 51 0.0 3.2 0.00 0.00 0.00 57 1011.2
20260509003113 21 76 0.0 6.4 0.00 0.00 0.00 56 1011.3
20260509002551 21 79 0.0 11.3 0.00 0.00 0.00 55 1011.1
20260509002051 22 15 3.2 11.3 0.00 0.00 0.00 54 1011.1
20260509001602 22 27 1.6 8.0 0.00 0.00 0.00 53 1011.0
20260509001052 22 11 3.2 8.0 0.00 0.00 0.00 51 1011.1
20260509000551 23 93 1.6 14.5 0.00 0.00 0.00 51 1011.1
20260509000111 23 344 4.8 14.5 0.00 0.00 0.00 49 1011.1
20260508235552 23 100 3.2 8.0 0.00 0.00 0.00 50 1011.0
20260508235052 23 309 3.2 9.7 0.00 0.00 0.00 49 1011.1
20260508234554 24 60 3.2 9.7 0.00 0.00 0.00 48 1011.1
20260508234053 24 52 3.2 9.7 0.00 0.00 0.00 48 1011.1
20260508233549 24 79 4.8 8.0 0.00 0.00 0.00 48 1011.1
20260508233054 24 46 3.2 9.7 0.00 0.00 0.00 47 1011.1
20260508232550 24 35 4.8 9.7 0.00 0.00 0.00 46 1011.1
20260508232049 25 39 4.8 14.5 0.00 0.00 0.00 46 1011.2
20260508231559 25 53 4.8 14.5 0.00 0.00 0.00 46 1011.2
20260508231050 25 64 4.8 11.3 0.00 0.00 0.00 46 1011.1
20260508230549 25 73 4.8 11.3 0.00 0.00 0.00 46 1011.2
20260508230058 25 60 4.8 11.3 0.00 0.00 0.00 47 1011.3
20260508225549 25 67 3.2 12.9 0.00 0.00 0.00 47 1011.3
20260508225052 25 49 3.2 14.5 0.00 0.00 0.00 46 1011.4
20260508224604 25 22 4.8 14.5 0.00 0.00 0.00 45 1011.5
20260508224052 25 30 3.2 12.9 0.00 0.00 0.00 45 1011.4
20260508223550 25 346 4.8 12.9 0.00 0.00 0.00 44 1011.5
20260508223055 26 308 3.2 8.0 0.00 0.00 0.00 44 1011.5
20260508222549 26 93 1.6 8.0 0.00 0.00 0.00 44 1011.4
20260508222052 25 71 3.2 9.7 0.00 0.00 0.00 44 1011.6
20260508221555 25 77 3.2 9.7 0.00 0.00 0.00 44 1011.5
20260508221050 26 101 3.2 9.7 0.00 0.00 0.00 45 1011.6
20260508220549 25 75 3.2 16.1 0.00 0.00 0.00 43 1011.6
20260508220055 25 310 3.2 16.1 0.00 0.00 0.00 44 1011.6
20260508215549 25 4 6.4 16.1 0.00 0.00 0.00 45 1011.6
20260508215053 25 32 6.4 12.9 0.00 0.00 0.00 46 1011.7
20260508214555 25 70 3.2 11.3 0.00 0.00 0.00 47 1011.7
20260508214050 25 53 3.2 11.3 0.00 0.00 0.00 46 1011.6
20260508213550 25 84 4.8 12.9 0.00 0.00 0.00 46 1011.6
20260508213055 25 86 6.4 12.9 0.00 0.00 0.00 44 1011.7
20260508212551 25 74 4.8 9.7 0.00 0.00 0.00 44 1011.8
20260508212050 25 71 1.6 11.3 0.00 0.00 0.00 47 1011.8
20260508211552 25 68 4.8 11.3 0.00 0.00 0.00 44 1011.8
20260508211053 25 92 4.8 11.3 0.00 0.00 0.00 43 1012.0
20260508210550 25 300 3.2 14.5 0.00 0.00 0.00 43 1012.0
20260508210055 25 89 6.4 14.5 0.00 0.00 0.00 44 1011.9
20260508205549 25 153 4.8 14.5 0.00 0.00 0.00 45 1011.8
20260508205050 25 52 3.2 11.3 0.00 0.00 0.00 45 1011.9
20260508204552 25 93 4.8 16.1 0.00 0.00 0.00 46 1011.9
20260508204050 25 332 3.2 16.1 0.00 0.00 0.00 46 1012.1
20260508203549 25 287 4.8 9.7 0.00 0.00 0.00 45 1012.2
20260508203054 26 48 4.8 11.3 0.00 0.00 0.00 44 1012.3
20260508202551 26 333 3.2 11.3 0.00 0.00 0.00 43 1012.4
20260508202049 25 87 4.8 11.3 0.00 0.00 0.00 43 1012.5
20260508201602 25 262 3.2 9.7 0.00 0.00 0.00 45 1012.5
20260508201049 25 111 3.2 9.7 0.00 0.00 0.00 45 1012.5
20260508200550 25 99 3.2 9.7 0.00 0.00 0.00 47 1012.6
20260508200059 25 87 1.6 11.3 0.00 0.00 0.00 47 1012.7
20260508195549 25 268 4.8 11.3 0.00 0.00 0.00 46 1012.7
20260508195050 25 84 1.6 8.0 0.00 0.00 0.00 45 1012.7
20260508194557 25 58 3.2 8.0 0.00 0.00 0.00 44 1012.7
20260508194050 25 63 1.6 9.7 0.00 0.00 0.00 45 1012.7
20260508193551 25 298 4.8 9.7 0.00 0.00 0.00 44 1012.8
20260508193101 25 152 3.2 14.5 0.00 0.00 0.00 46 1012.9
20260508192549 25 60 3.2 14.5 0.00 0.00 0.00 42 1013.0
20260508192050 25 352 6.4 14.5 0.00 0.00 0.00 44 1013.1
20260508191553 25 79 3.2 11.3 0.00 0.00 0.00 45 1013.3
20260508191049 25 42 3.2 11.3 0.00 0.00 0.00 44 1013.3
20260508190610 25 80 3.2 14.5 0.00 0.00 0.00 48 1013.3
20260508190057 25 257 1.6 14.5 0.00 0.00 0.00 47 1013.3
20260508185553 24 18 3.2 14.5 0.00 0.00 0.00 45 1013.5
20260508185050 25 72 1.6 12.9 0.00 0.00 0.00 51 1013.6
20260508184609 24 47 3.2 12.9 0.00 0.00 0.00 47 1013.7
20260508184049 24 134 3.2 11.3 0.00 0.00 0.00 49 1013.9
20260508183549 24 295 3.2 14.5 0.00 0.00 0.00 45 1014.1
20260508183102 24 106 4.8 14.5 0.00 0.00 0.00 48 1014.4
20260508182549 24 260 1.6 16.1 0.00 0.00 0.00 48 1014.4
20260508182050 23 60 3.2 16.1 0.00 0.00 0.00 48 1014.5
20260508181552 23 86 1.6 9.7 0.00 0.00 0.00 44 1014.5
20260508181049 23 84 1.6 9.7 0.00 0.00 0.00 44 1014.8
20260508180553 23 316 4.8 11.3 0.00 0.00 0.00 44 1014.6
20260508180051 24 0 4.8 11.3 0.00 0.00 0.00 45 1014.6
20260508175549 24 25 3.2 9.7 0.00 0.00 0.00 47 1014.7
20260508175050 24 68 3.2 9.7 0.00 0.00 0.00 51 1014.9
20260508174604 24 13 3.2 12.9 0.00 0.00 0.00 49 1014.9
20260508174049 24 86 4.8 12.9 0.00 0.00 0.00 47 1014.9
20260508173550 24 105 3.2 8.0 0.00 0.00 0.00 48 1015.1
20260508173056 24 53 1.6 8.0 0.00 0.00 0.00 47 1015.1
20260508172553 24 79 1.6 6.4 0.00 0.00 0.00 48 1015.3
20260508172050 23 84 0.0 8.0 0.00 0.00 0.00 48 1015.4
20260508171557 23 273 3.2 8.0 0.00 0.00 0.00 47 1015.5
20260508171056 23 309 3.2 9.7 0.00 0.00 0.00 51 1015.6
20260508170556 23 78 1.6 9.7 0.00 0.00 0.00 50 1015.7
20260508170056 23 317 1.6 11.3 0.00 0.00 0.00 47 1015.8
20260508165549 23 114 1.6 11.3 0.00 0.00 0.00 50 1015.8
20260508165049 23 104 3.2 11.3 0.00 0.00 0.00 50 1016.0
20260508164605 23 89 3.2 11.3 0.00 0.00 0.00 54 1015.9
20260508164049 23 75 1.6 12.9 0.00 0.00 0.00 48 1016.0
20260508163549 23 82 4.8 12.9 0.00 0.00 0.00 50 1016.2
20260508163115 23 136 1.6 12.9 0.00 0.00 0.00 53 1016.3
20260508162550 22 192 3.2 12.9 0.00 0.00 0.00 50 1016.4
20260508162050 23 293 4.8 12.9 0.00 0.00 0.00 47 1016.4
20260508161557 23 49 3.2 9.7 0.00 0.00 0.00 50 1016.5
20260508161050 22 74 1.6 9.7 0.00 0.00 0.00 49 1016.5
20260508160549 22 285 1.6 9.7 0.00 0.00 0.00 49 1016.5
20260508160052 22 43 4.8 9.7 0.00 0.00 0.00 47 1016.6
20260508155551 22 307 1.6 8.0 0.00 0.00 0.00 48 1016.5
20260508155054 22 43 3.2 8.0 0.00 0.00 0.00 49 1016.5
20260508154600 22 86 1.6 8.0 0.00 0.00 0.00 51 1016.7
20260508154050 22 0 3.2 9.7 0.00 0.00 0.00 50 1016.7
20260508153550 21 279 1.6 9.7 0.00 0.00 0.00 53 1016.8
20260508153058 21 76 4.8 9.7 0.00 0.00 0.00 53 1017.0
20260508152551 21 79 3.2 9.7 0.00 0.00 0.00 54 1017.1
20260508152050 21 268 3.2 9.7 0.00 0.00 0.00 53 1017.1
20260508151552 21 87 3.2 11.3 0.00 0.00 0.00 57 1017.1
20260508151050 21 49 3.2 11.3 0.00 0.00 0.00 54 1017.3
20260508150549 21 91 3.2 8.0 0.00 0.00 0.00 56 1017.4
20260508150056 21 25 1.6 8.0 0.00 0.00 0.00 58 1017.3
20260508145550 20 159 1.6 8.0 0.00 0.00 0.00 59 1017.3
20260508145049 20 11 1.6 11.3 0.00 0.00 0.00 61 1017.3
20260508144610 20 74 4.8 11.3 0.00 0.00 0.00 61 1017.4
20260508144050 20 301 3.2 8.0 0.00 0.00 0.00 60 1017.4
20260508143552 20 128 3.2 9.7 0.00 0.00 0.00 62 1017.5
20260508143056 20 41 3.2 9.7 0.00 0.00 0.00 65 1017.6
20260508142552 20 103 3.2 9.7 0.00 0.00 0.00 63 1017.6
20260508142055 20 82 1.6 6.4 0.00 0.00 0.00 62 1017.6
20260508141552 19 260 1.6 8.0 0.00 0.00 0.00 62 1017.6
20260508141050 19 89 1.6 8.0 0.00 0.00 0.00 68 1017.6
20260508140550 19 243 1.6 4.8 0.00 0.00 0.00 67 1017.6
20260508140053 18 84 0.0 4.8 0.00 0.00 0.00 68 1017.5
20260508135550 18 91 0.0 4.8 0.00 0.00 0.00 70 1017.5
20260508135052 18 39 1.6 4.8 0.00 0.00 0.00 72 1017.6
20260508134557 17 26 0.0 8.0 0.00 0.00 0.00 71 1017.6
20260508134050 17 77 1.6 8.0 0.00 0.00 0.00 72 1017.5
20260508133555 17 82 1.6 4.8 0.00 0.00 0.00 72 1017.7
20260508133100 16 82 1.6 4.8 0.00 0.00 0.00 75 1017.9
20260508132549 16 18 1.6 4.8 0.00 0.00 0.00 75 1018.0
20260508132050 16 79 0.0 3.2 0.00 0.00 0.00 78 1018.0
20260508131558 15 59 0.0 3.2 0.00 0.00 0.00 78 1018.0
20260508131050 15 70 0.0 1.6 0.00 0.00 0.00 83 1017.9
20260508130549 14 69 0.0 3.2 0.00 0.00 0.00 85 1017.9
20260508130107 13 69 0.0 4.8 0.00 0.00 0.00 90 1017.9
20260508125552 12 80 0.0 4.8 0.00 0.00 0.00 92 1018.0
20260508125051 11 67 1.6 4.8 0.00 0.00 0.00 95 1018.0
20260508124554 11 57 0.0 3.2 0.00 0.00 0.00 99 1017.9
20260508124051 10 79 0.0 3.2 0.00 0.00 0.00 100 1018.0
20260508123555 10 60 0.0 3.2 0.00 0.00 0.00 100 1017.9
20260508123056 8 0 1.6 3.2 0.00 0.00 0.00 100 1018.0
20260508122551 8 72 0.0 3.2 0.00 0.00 0.00 100 1017.9
20260508122052 8 59 0.0 1.6 0.00 0.00 0.00 100 1018.0
20260508121552 7 116 0.0 1.6 0.00 0.00 0.00 100 1018.0
20260508121051 7 116 0.0 1.6 0.00 0.00 0.00 100 1017.8
20260508120549 7 0 0.0 1.6 0.00 0.00 0.00 100 1017.8
20260508120050 7 0 0.0 1.6 0.00 0.00 0.00 100 1017.8
20260508115552 6 116 0.0 0.0 0.00 0.00 0.00 99 1017.7
20260508115051 6 0 0.0 0.0 0.00 0.00 0.00 99 1017.6
20260508114556 6 0 0.0 0.0 0.00 0.00 0.00 99 1017.6
20260508114051 6 0 0.0 0.0 0.00 0.00 0.00 99 1017.4
20260508113551 6 0 0.0 0.0 0.00 0.00 0.00 99 1017.4
20260508113058 6 0 0.0 0.0 0.00 0.00 0.00 99 1017.3
20260508112551 6 0 0.0 0.0 0.00 0.00 0.00 99 1017.2
20260508112051 6 0 0.0 0.0 0.00 0.00 0.00 99 1017.2
20260508111553 6 0 0.0 0.0 0.00 0.00 0.00 99 1017.0
20260508111052 6 0 0.0 0.0 0.00 0.00 0.00 99 1017.1
20260508110550 6 0 0.0 0.0 0.00 0.00 0.00 99 1017.1
20260508110110 6 0 0.0 0.0 0.00 0.00 0.00 99 1017.1
20260508105552 6 0 0.0 0.0 0.00 0.00 0.00 99 1017.1
20260508105053 6 0 0.0 0.0 0.00 0.00 0.00 99 1017.0
20260508104557 6 0 0.0 0.0 0.00 0.00 0.00 99 1017.0
20260508104049 6 0 0.0 0.0 0.00 0.00 0.00 99 1017.0
20260508103551 6 0 0.0 0.0 0.00 0.00 0.00 99 1017.0
20260508103054 6 0 0.0 0.0 0.00 0.00 0.00 99 1017.2
20260508102550 6 0 0.0 0.0 0.00 0.00 0.00 99 1017.1
20260508102052 6 0 0.0 0.0 0.00 0.00 0.00 99 1017.1